Home > Weather > Casper > Past weeks

Flag for USA Past Weather in Casper, Wyoming, USA — Yesterday and Last 2 Weeks

Now
39 °F

Sunny.


Feels Like: 39 °F
Forecast: 40 / 72 °F
Wind: No wind

Location: Natrona County International Airport

Current Time: May 24, 2016 at 7:52:30 AM

Latest Report: May 24, 2016 at 6:53 AM


Visibility: 10 mi

Pressure: 29.86 "Hg (24.61 "Hg at 1569m altitude)

Humidity: 82%

Dew Point: 34 °F

Location of CasperLocation

Past Weather in Casper — Graph

°F

Casper Temperature Yesterday

Maximum temperature yesterday: 65 °F (at 3:53 PM)
Minimum temperature yesterday: 37 °F (at 3:53 AM)
Average temperature yesterday: 50 °F

High & Low Weather Summary for the Past Weeks

 TemperatureHumidityPressure
High79 °F (May 21, 4:53 PM)93% (May 9, 5:53 AM)30.42 "Hg (May 9, 5:53 AM)
Low28 °F (May 12, 12:53 AM)17% (May 21, 4:53 PM)29.48 "Hg (May 9, 3:53 PM)
Average48 °F63%29.94 "Hg
* Reported May 9 5:53 AM — May 24 5:53 AM, Casper, Weather by CustomWeather, © 2016

Note: Actual official high and low records may vary slightly from our data, if they occured in-between our weather recording intervals... More about our weather records

Advertising

Casper Weather History for the Previous 24 Hours

Scroll right to see more
 ConditionsComfort  
Time TempWeatherWind HumidityBarometerVisibility
5:53 AM
Tue, May 24
33 °FClear.6 mph85%29.87 "Hg10 mi
4:53 AM35 °FClear.5 mph78%29.87 "Hg10 mi
3:53 AM34 °FClear.5 mph82%29.84 "Hg10 mi
2:53 AM34 °FClear.7 mph82%29.84 "Hg10 mi
1:53 AM37 °FClear.9 mph73%29.83 "Hg10 mi
12:53 AM40 °FClear.6 mph63%29.83 "Hg10 mi
11:53 PM
Mon, May 23
39 °FClear.5 mph65%29.82 "Hg10 mi
10:53 PM49 °FPassing clouds.8 mph41%29.80 "Hg10 mi
9:53 PM42 °FClear.7 mph62%29.83 "Hg10 mi
8:53 PM48 °FSunny.9 mph46%29.79 "Hg10 mi
7:53 PM55 °FSunny.8 mph37%29.76 "Hg10 mi
6:53 PM56 °FMostly cloudy.8 mph36%29.77 "Hg10 mi
5:53 PM60 °FSunny.22 mph24%29.75 "Hg10 mi
4:53 PM58 °FOvercast.29 mph28%29.76 "Hg10 mi
3:53 PM65 °FBroken clouds.20 mph22%29.73 "Hg10 mi
2:53 PM63 °FPartly sunny.21 mph23%29.73 "Hg10 mi
1:53 PM63 °FSunny.22 mph25%29.73 "Hg10 mi
12:53 PM60 °FSunny.25 mph25%29.75 "Hg10 mi
11:53 AM61 °FSunny.17 mph23%29.75 "Hg10 mi
10:53 AM58 °FSunny.20 mph33%29.78 "Hg10 mi
9:53 AM54 °FSunny.14 mph35%29.80 "Hg10 mi
8:53 AM50 °FSunny.21 mph46%29.81 "Hg10 mi
7:53 AM47 °FSunny.16 mph52%29.83 "Hg10 mi
Weather by CustomWeather, © 2016

See weather overviewHow to use our weather pages